RH
18 17 16 17 18 20 24 31 42 60 56 40 33 18 20 23 24 27 30 30 30 30 34 33 71 29 58 94 91 92 90 91 92 94 93 93 93 94
18 17 16 17 18 20 23 27 35 48 63 50 39 35 26 26 27 31 32 34 32 30 28 29 51 77 92 92 90 89 89 90 92 90 92 92 92 93
17 16 16 18 19 20 23 26 30 36 48 46 43 38 38 34 30 31 34 35 34 33 31 40 88 93 91 91 88 90 91 90 88 90 90 91 91 92
17 18 17 20 22 23 24 27 32 34 45 51 45 42 42 37 38 34 32 35 37 36 33 53 92 92 92 90 92 98 90 90 91 91 92 92 91 90
18 19 20 23 24 24 28 32 35 41 45 52 52 45 46 50 49 48 46 42 42 41 41 82 89 89 93 96 94 95 86 90 93 92 91 91 90 87
21 22 24 27 28 29 32 37 43 46 47 54 63 66 66 65 69 63 53 53 50 45 52 65 55 47 70 86 89 87 62 48 81 77 89 91 90 86
23 25 26 25 28 33 41 44 56 72 78 82 84 83 75 68 66 72 91 84 76 70 59 52 56 46 34 32 30 23 20 22 72 92 91 89 88 86
27 31 39 46 53 94 96 96 99 97 94 88 81 82 84 90 97 98 100 100 100 89 77 64 54 40 36 38 37 36 42 85 92 93 91 88 87 84
84 83 77 72 96 96 98 99 97 97 99 99 99 99 98 98 98 96 94 89 84 74 61 51 51 50 51 55 53 53 78 95 93 90 88 87 85 84
97 100 98 96 98 98 96 92 83 70 60 54 60 68 69 67 68 69 66 67 67 64 64 73 81 76 74 70 69 66 92 91 89 86 84 82 88 88
98 100 100 100 100 100 98 98 97 89 87 96 95 94 94 96 99 97 97 97 97 97 93 98 95 87 71 60 50 44 60 83 86 86 88 94 88 82
93 91 94 97 100 98 94 88 83 78 86 94 86 64 69 66 80 81 79 78 84 90 76 95 93 94 93 81 57 51 64 83 100 97 90 85 82 78
100 100 100 98 96 92 92 98 100 96 88 93 87 83 84 84 79 69 68 74 77 85 76 100 99 97 97 98 96 92 92 78 62 49 40 55 59 76
94 93 94 96 94 92 91 92 91 93 96 98 97 91 80 67 62 74 88 88 90 94 93 98 98 98 96 86 72 49 44 41 46 43 48 56 79 83
98 100 100 98 96 94 92 96 100 97 98 98 98 95 90 80 71 64 62 72 75 86 89 92 97 79 50 67 74 80 76 72 82 81 77 70 56 47
100 96 97 98 99 97 100 100 98 97 91 82 83 85 86 81 93 98 97 88 80 75 70 65 57 52 62 74 93 95 96 100 94 90 79 62 58 61
68 66 77 88 92 89 89 88 76 54 47 58 68 68 67 81 92 92 98 95 88 74 60 46 39 34 67 89 100 100 100 100 91 82 80 87 64 63
99 93 81 58 53 51 51 51 58 66 70 78 79 89 99 100 96 91 94 84 64 51 54 41 40 63 86 80 94 100 100 100 86 72 78 100 100 90
96 98 95 90 83 79 78 79 86 78 84 99 100 99 98 98 98 88 66 53 48 46 41 40 52 92 100 100 58 88 92 94 98 100 98 100 100 93
98 98 98 99 100 100 99 98 95 99 100 100 100 100 95 78 66 60 53 47 46 44 44 47 68 72 100 99 99 92 95 100 100 100 100 99 100 100
96 100 100 100 96 92 88 78 73 74 83 93 97 90 77 66 58 54 52 60 83 89 86 65 40 71 100 100 100 98 82 75 100 100 100 100 100 100
78 78 79 87 97 100 100 100 100 100 100 97 84 71 64 63 60 56 51 48 42 44 45 62 78 88 100 100 100 100 89 75 71 83 100 100 100 98
84 83 91 88 72 68 72 80 83 81 78 77 74 70 63 61 59 54 46 43 46 70 93 92 91 98 100 100 100 100 100 100 100 100 100 93 100 100
Wind_Speed
11 13 14 15 17 19 20 21 22 22 25 27 26 25 23 23 23 24 25 25 26 26 25 25 23 22 21 20 20 19 19 20 20 21 21 22 22 23
15 17 18 19 20 22 23 24 25 27 29 27 30 32 29 27 25 25 25 25 26 26 26 25 24 23 20 20 21 20 21 22 22 21 22 23 23 24
19 20 21 22 23 25 26 27 28 28 34 36 34 31 30 28 27 26 25 25 26 25 25 24 22 22 21 22 23 22 23 23 23 23 23 24 24 24
22 24 24 25 27 28 28 29 29 29 31 35 33 31 30 27 27 27 27 27 27 24 24 24 22 21 24 22 22 22 25 24 25 23 24 24 24 24
26 27 28 28 30 30 30 30 30 29 30 31 33 30 28 24 24 24 25 25 25 25 26 23 22 22 24 23 25 27 28 26 26 25 26 25 25 25
28 29 30 30 31 30 30 30 28 28 27 26 27 27 27 26 27 27 27 25 25 24 24 25 26 30 31 30 31 31 31 30 27 28 27 27 27 27
30 30 31 30 30 29 28 27 23 23 25 28 30 31 31 31 30 30 32 29 29 26 25 29 33 37 35 34 33 32 32 31 29 28 28 29 29 29
31 30 29 28 27 24 24 26 28 30 31 31 33 36 35 31 27 25 26 26 30 22 28 41 39 39 31 28 28 30 31 29 29 30 31 29 31 32
34 32 31 30 24 23 24 24 26 28 29 29 30 28 25 22 21 22 28 33 40 42 37 41 33 34 33 34 35 34 31 30 32 33 33 33 33 32
36 36 35 34 33 29 30 32 33 32 32 34 37 39 38 34 32 32 33 34 37 36 33 44 37 39 33 31 31 34 35 37 38 36 35 34 33 34
35 34 35 35 33 28 30 32 33 33 28 25 27 30 31 32 32 35 37 30 31 26 18 23 29 35 39 41 45 46 42 36 35 34 32 32 34 37
36 36 34 33 30 28 29 31 33 33 32 33 32 34 30 32 31 33 37 39 38 38 38 30 30 29 34 34 41 41 40 37 29 30 33 37 40 43
33 32 33 29 29 30 31 33 34 31 34 33 35 34 34 34 32 31 31 34 38 40 36 30 33 33 35 31 24 30 36 43 47 52 52 50 47 41
38 37 36 31 30 30 30 31 32 31 33 35 36 36 35 35 35 33 35 36 38 41 37 29 32 31 35 42 45 49 51 53 50 51 49 46 41 41
39 38 34 31 30 31 31 32 31 31 30 28 28 29 30 32 33 33 36 34 30 30 29 30 33 38 42 43 45 43 42 42 40 43 44 45 47 47
35 36 37 36 33 33 32 29 29 29 32 36 36 36 33 31 25 23 25 26 30 34 35 36 37 41 44 44 42 45 41 42 44 44 46 50 50 49
27 32 38 41 40 39 38 37 37 36 33 31 32 33 33 29 27 26 25 28 33 37 40 41 44 47 40 38 41 43 46 45 45 48 47 49 51 50
26 25 24 24 25 24 24 25 26 28 27 24 23 26 27 27 29 30 31 33 37 40 41 45 45 41 39 44 40 44 44 45 49 50 50 47 51 52
31 33 35 35 32 29 29 31 33 32 27 23 26 26 26 26 27 30 34 38 42 44 46 45 41 36 39 42 49 35 39 44 46 47 48 48 51 56
21 18 19 15 16 18 18 18 17 19 25 24 25 27 28 30 33 36 39 42 43 44 45 44 42 43 40 45 47 49 41 45 48 53 54 55 55 54
15 15 15 17 18 19 20 19 19 22 26 28 29 29 31 34 37 39 40 39 37 40 44 48 49 42 42 44 46 50 55 54 50 54 58 56 55 55
21 23 25 24 20 16 16 17 20 23 25 27 30 33 35 36 37 38 40 42 44 45 47 48 47 48 48 44 49 53 57 57 56 53 53 53 56 56
17 17 17 18 21 24 27 28 29 29 29 31 33 34 34 36 37 39 42 43 44 46 48 51 51 48 49 49 48 51 53 56 58 55 59 55 52 54
Wind_Direction
269 274 276 274 273 272 272 273 276 281 288 295 296 300 296 291 287 284 282 280 278 280 285 289 289 288 290 292 296 297 298 300 305 306 308 307 306 303
269 271 274 273 271 270 270 270 269 271 274 279 284 290 292 291 291 289 288 285 283 283 283 282 284 287 289 290 291 292 291 295 302 302 302 304 301 302
271 272 273 272 270 269 268 267 266 266 271 276 280 284 286 288 289 287 287 286 285 283 281 281 285 286 282 288 285 283 284 295 295 296 297 297 300 298
271 271 272 270 268 267 266 265 264 265 269 276 280 284 286 289 290 289 289 288 289 285 278 280 288 283 280 284 276 285 286 290 290 290 290 294 297 297
271 270 270 267 267 266 265 265 264 266 267 273 280 285 288 290 293 293 292 290 287 285 282 276 281 282 281 276 274 277 288 286 285 286 291 291 292 295
270 268 267 266 266 265 264 264 266 269 273 275 280 284 286 291 292 294 296 294 290 285 279 271 281 288 284 279 279 282 283 281 281 284 288 290 290 289
267 266 266 264 264 265 265 267 270 273 275 277 281 285 287 289 290 294 290 290 284 283 281 280 290 296 288 282 279 279 279 280 281 284 284 284 285 285
266 264 262 263 262 258 258 259 266 274 275 277 278 278 282 284 286 282 283 280 277 276 283 292 297 293 286 284 283 280 280 282 280 281 284 283 281 283
270 270 271 272 266 266 264 259 256 253 257 267 274 275 275 268 267 267 271 277 278 284 291 286 288 284 286 289 282 279 278 279 281 282 283 281 282 281
258 262 266 268 268 265 267 269 270 268 262 259 260 266 272 278 279 279 280 280 281 279 281 277 283 283 286 278 278 283 282 280 281 281 279 279 278 280
257 259 259 259 260 258 260 264 267 271 273 265 267 271 274 273 271 275 273 275 278 283 278 273 282 287 291 290 288 287 287 281 278 278 275 276 279 281
258 257 253 255 262 259 258 261 265 269 274 276 275 279 272 268 267 264 269 274 276 278 276 274 277 278 281 281 289 289 286 280 268 269 276 279 281 282
258 256 255 255 254 254 255 260 263 270 274 273 273 274 277 280 279 276 272 270 271 273 277 272 276 277 279 284 282 285 290 288 290 288 286 285 283 279
257 258 257 258 257 256 256 257 260 264 265 268 272 274 273 275 278 280 277 276 276 274 276 274 275 276 279 285 285 288 286 284 284 284 285 285 282 279
255 258 260 260 257 257 256 257 261 260 262 266 264 268 272 276 283 283 282 285 279 273 272 272 273 278 285 283 281 281 283 281 278 280 281 282 284 287
249 249 250 251 255 258 260 253 248 254 261 267 272 275 278 278 273 272 275 274 275 277 276 280 285 290 283 278 275 275 274 271 278 278 280 284 285 283
258 252 250 250 251 251 252 255 260 262 261 263 265 269 271 268 265 270 265 269 278 286 290 293 294 293 285 278 271 268 272 274 275 278 281 280 284 284
255 256 254 248 248 251 251 252 254 258 262 268 264 270 264 254 265 271 274 280 286 289 289 292 292 289 283 277 267 270 271 271 276 279 279 272 276 279
247 249 256 259 256 255 259 265 272 270 273 261 262 258 253 262 273 279 282 286 289 290 289 290 287 279 274 272 282 268 267 270 272 271 271 270 271 277
279 259 261 254 249 250 253 254 264 263 252 253 257 260 268 277 281 283 285 286 288 289 289 288 284 281 267 270 278 281 276 271 269 270 273 274 273 279
269 271 269 268 264 267 266 263 260 253 252 256 261 267 273 279 281 282 284 285 284 281 279 282 287 289 281 281 276 275 278 280 270 270 272 273 273 274
274 272 270 267 265 258 251 249 248 249 256 265 271 275 278 278 280 283 285 288 289 290 290 292 295 295 291 278 273 277 285 291 290 282 273 270 270 270
269 267 269 269 263 261 257 257 260 263 266 270 273 275 278 280 283 286 288 289 290 292 293 295 297 296 290 283 277 276 277 279 281 279 280 283 275 273